TimePST,TemperatureF,Dew PointF,Humidity,Sea Level PressureIn,VisibilityMPH,Wind Direction,Wind SpeedMPH,Gust SpeedMPH,PrecipitationIn,Events,Conditions,WindDirDegrees,DateUTC
12:15 AM,32.0,32.0,100,30.35,10.0,SSW,6.9,-,N/A,,Overcast,200,2013-12-14 08:15:00
12:35 AM,33.8,32.0,93,30.35,10.0,SSW,9.2,-,N/A,,Overcast,200,2013-12-14 08:35:00
12:55 AM,33.8,32.0,93,30.34,10.0,SSW,8.1,18.4,N/A,,Overcast,210,2013-12-14 08:55:00
1:15 AM,33.8,32.0,93,30.34,10.0,South,5.8,-,N/A,,Overcast,190,2013-12-14 09:15:00
1:35 AM,33.8,32.0,93,30.34,10.0,Calm,Calm,-,N/A,,Overcast,0,2013-12-14 09:35:00
1:55 AM,33.8,32.0,93,30.34,10.0,SSW,5.8,-,N/A,,Overcast,210,2013-12-14 09:55:00
2:15 AM,33.8,32.0,93,30.34,10.0,SSW,8.1,-,N/A,,Overcast,210,2013-12-14 10:15:00
2:35 AM,33.8,32.0,93,30.35,10.0,SW,6.9,-,N/A,,Overcast,220,2013-12-14 10:35:00
2:55 AM,32.0,32.0,100,30.35,10.0,SW,6.9,-,N/A,,Overcast,220,2013-12-14 10:55:00
3:15 AM,33.8,32.0,93,30.33,10.0,SSW,8.1,-,N/A,,Overcast,210,2013-12-14 11:15:00
3:35 AM,33.8,32.0,93,30.34,10.0,SW,6.9,-,N/A,,Overcast,220,2013-12-14 11:35:00
3:55 AM,33.8,32.0,93,30.33,9.0,SSW,5.8,-,N/A,,Overcast,210,2013-12-14 11:55:00
4:15 AM,33.8,32.0,93,30.33,9.0,Calm,Calm,-,N/A,,Overcast,0,2013-12-14 12:15:00
4:35 AM,33.8,32.0,93,30.33,9.0,SW,3.5,-,N/A,,Overcast,220,2013-12-14 12:35:00
4:55 AM,33.8,32.0,93,30.34,10.0,SW,3.5,-,N/A,,Overcast,220,2013-12-14 12:55:00
5:15 AM,33.8,32.0,93,30.34,9.0,WSW,4.6,-,N/A,,Overcast,250,2013-12-14 13:15:00
5:35 AM,33.8,32.0,93,30.33,8.0,Calm,Calm,-,N/A,,Overcast,0,2013-12-14 13:35:00
5:55 AM,33.8,32.0,93,30.34,8.0,Calm,Calm,-,N/A,,Overcast,0,2013-12-14 13:55:00
6:15 AM,33.8,32.0,93,30.32,8.0,Calm,Calm,-,N/A,,Overcast,0,2013-12-14 14:15:00
6:35 AM,33.8,32.0,93,30.32,7.0,WSW,5.8,-,N/A,,Overcast,240,2013-12-14 14:35:00
6:55 AM,33.8,32.0,93,30.32,7.0,WSW,8.1,-,N/A,,Overcast,240,2013-12-14 14:55:00
7:15 AM,35.6,33.8,93,30.32,8.0,SW,4.6,-,N/A,,Overcast,230,2013-12-14 15:15:00
7:35 AM,35.6,33.8,93,30.32,7.0,WSW,4.6,-,N/A,,Overcast,240,2013-12-14 15:35:00
7:55 AM,35.6,33.8,93,30.32,7.0,WSW,6.9,-,N/A,,Mostly Cloudy,240,2013-12-14 15:55:00
8:15 AM,35.6,32.0,87,30.31,9.0,WSW,8.1,-,N/A,,Overcast,240,2013-12-14 16:15:00
8:35 AM,35.6,32.0,87,30.31,10.0,WSW,6.9,-,N/A,,Mostly Cloudy,240,2013-12-14 16:35:00
8:55 AM,35.6,32.0,87,30.32,10.0,WSW,5.8,-,N/A,,Overcast,240,2013-12-14 16:55:00
9:15 AM,35.6,33.8,93,30.32,10.0,Calm,Calm,-,N/A,,Overcast,0,2013-12-14 17:15:00
9:35 AM,37.4,32.0,81,30.31,10.0,Calm,Calm,-,N/A,,Mostly Cloudy,0,2013-12-14 17:35:00
9:55 AM,35.6,32.0,87,30.31,10.0,Calm,Calm,-,N/A,,Overcast,0,2013-12-14 17:55:00
10:15 AM,35.6,33.8,93,30.31,10.0,Calm,Calm,-,N/A,,Overcast,0,2013-12-14 18:15:00
10:35 AM,35.6,33.8,93,30.30,10.0,Calm,Calm,-,N/A,,Overcast,0,2013-12-14 18:35:00
10:55 AM,37.4,33.8,87,30.29,10.0,South,5.8,-,N/A,,Overcast,180,2013-12-14 18:55:00
11:15 AM,37.4,33.8,87,30.29,10.0,SSW,6.9,-,N/A,,Overcast,200,2013-12-14 19:15:00
11:35 AM,37.4,33.8,87,30.29,10.0,SSW,9.2,-,N/A,,Overcast,210,2013-12-14 19:35:00
11:55 AM,37.4,33.8,87,30.29,10.0,SSW,4.6,-,N/A,,Overcast,210,2013-12-14 19:55:00
12:15 PM,37.4,33.8,87,30.29,10.0,SSW,3.5,-,N/A,,Overcast,210,2013-12-14 20:15:00
12:35 PM,37.4,33.8,87,30.30,10.0,SW,5.8,-,N/A,,Overcast,230,2013-12-14 20:35:00
12:55 PM,37.4,35.6,93,30.29,10.0,WSW,8.1,-,N/A,,Mostly Cloudy,250,2013-12-14 20:55:00
1:15 PM,37.4,35.6,93,30.29,10.0,WSW,9.2,-,N/A,,Overcast,240,2013-12-14 21:15:00
1:35 PM,37.4,35.6,93,30.29,10.0,WSW,9.2,-,N/A,,Overcast,240,2013-12-14 21:35:00
1:55 PM,37.4,35.6,93,30.28,10.0,WSW,6.9,-,N/A,,Overcast,240,2013-12-14 21:55:00
2:15 PM,37.4,35.6,93,30.28,10.0,SW,6.9,-,N/A,,Overcast,230,2013-12-14 22:15:00
2:35 PM,37.4,35.6,93,30.28,10.0,SW,8.1,-,N/A,,Overcast,230,2013-12-14 22:35:00
2:55 PM,37.4,35.6,93,30.28,10.0,SSW,4.6,-,N/A,,Overcast,210,2013-12-14 22:55:00
3:15 PM,37.4,35.6,93,30.26,10.0,Calm,Calm,-,N/A,,Overcast,0,2013-12-14 23:15:00
3:35 PM,35.6,35.6,100,30.26,10.0,SW,4.6,-,N/A,,Overcast,230,2013-12-14 23:35:00
3:55 PM,37.4,35.6,93,30.27,10.0,Calm,Calm,-,N/A,,Overcast,0,2013-12-14 23:55:00
4:15 PM,37.4,35.6,93,30.26,6.0,Calm,Calm,-,0.01,Rain,Light Rain,0,2013-12-15 00:15:00
4:35 PM,37.4,35.6,93,30.25,10.0,Calm,Calm,-,0.01,Rain,Light Rain,0,2013-12-15 00:35:00
4:55 PM,35.6,35.6,100,30.25,10.0,SW,5.8,-,0.01,Rain,Light Rain,230,2013-12-15 00:55:00
5:15 PM,37.4,35.6,93,30.26,10.0,SSW,6.9,-,N/A,,Overcast,210,2013-12-15 01:15:00
5:35 PM,37.4,35.6,93,30.25,10.0,South,4.6,-,N/A,,Overcast,170,2013-12-15 01:35:00
5:55 PM,35.6,35.6,100,30.24,0.2,Calm,Calm,-,N/A,Fog,Fog,0,2013-12-15 01:55:00
6:15 PM,35.6,35.6,100,30.23,0.8,East,3.5,-,N/A,,Overcast,90,2013-12-15 02:15:00
6:35 PM,37.4,35.6,93,30.24,10.0,Calm,Calm,-,N/A,,Overcast,0,2013-12-15 02:35:00
6:55 PM,37.4,35.6,93,30.23,10.0,Calm,Calm,-,N/A,,Overcast,0,2013-12-15 02:55:00
7:15 PM,37.4,35.6,93,30.24,10.0,Calm,Calm,-,N/A,,Overcast,0,2013-12-15 03:15:00
7:35 PM,37.4,35.6,93,30.24,10.0,SSW,3.5,-,N/A,,Overcast,210,2013-12-15 03:35:00
7:55 PM,37.4,35.6,93,30.25,10.0,SSW,6.9,-,N/A,,Overcast,210,2013-12-15 03:55:00
8:15 PM,37.4,35.6,93,30.23,10.0,SSW,6.9,-,N/A,,Overcast,200,2013-12-15 04:15:00
8:35 PM,37.4,35.6,93,30.23,10.0,SW,4.6,-,N/A,,Overcast,220,2013-12-15 04:35:00
8:55 PM,37.4,35.6,93,30.22,10.0,SW,4.6,-,N/A,,Mostly Cloudy,220,2013-12-15 04:55:00
9:15 PM,37.4,35.6,93,30.23,10.0,SW,3.5,-,N/A,,Clear,220,2013-12-15 05:15:00
9:35 PM,37.4,33.8,87,30.24,10.0,SW,3.5,-,N/A,,Partly Cloudy,230,2013-12-15 05:35:00
9:55 PM,37.4,33.8,87,30.24,10.0,Calm,Calm,-,N/A,,Partly Cloudy,0,2013-12-15 05:55:00
10:15 PM,37.4,33.8,87,30.23,10.0,Calm,Calm,-,N/A,,Clear,0,2013-12-15 06:15:00
10:35 PM,37.4,33.8,87,30.23,10.0,Calm,Calm,-,N/A,,Clear,0,2013-12-15 06:35:00
10:55 PM,37.4,33.8,87,30.22,10.0,South,5.8,-,N/A,,Clear,190,2013-12-15 06:55:00
11:15 PM,37.4,33.8,87,30.22,10.0,SW,5.8,-,N/A,,Clear,230,2013-12-15 07:15:00
11:35 PM,37.4,33.8,87,30.22,10.0,SSW,5.8,-,N/A,,Clear,210,2013-12-15 07:35:00
11:55 PM,37.4,32.0,81,30.23,10.0,SW,3.5,-,N/A,,Clear,220,2013-12-15 07:55:00